[[{"header":{"parameterUnit":"m.s-1","parameterCategory":1,"la1":30.2991,"la2":30.254,"lo1":-89.0895,"lo2":-89.0444,"dy":0.0017,"dx":0.0017,"nx":28,"ny":28,"refTime":"2024-03-24T21:00:00:Z","depth":0,"parameterNumber":2,"parameterNumberName":"U-component_of_WINDS"},"data":[0,0,0,0,0,0,0,0,0,0,0,0,0,0,0,0,0,0,0,0,0,0,0,0,0,0,0,0,0,0,0,0,0,0,0,0,0,0,0,0,0,0,0,0,0,0,0,0,0,0,0,0,0,0,0,0,0,0,-7.3702,-7.3704,0,-7.3891,-7.3893,-7.3895,-7.3943,-7.3942,-7.3941,-7.394,-7.4131,-7.4137,-7.4143,0,0,0,0,0,0,0,0,0,0,0,0,0,-7.3379,-7.3385,-7.3701,-7.3704,-7.3706,-7.3891,-7.3893,-7.3896,-7.3943,-7.3942,-7.3941,-7.3939,-7.4128,-7.4136,-7.4143,0,0,0,0,0,0,0,0,0,0,0,0,0,-7.3539,-7.3387,-7.3701,-7.3752,-7.3759,-7.389,-7.3893,-7.3897,-7.3944,-7.3942,-7.394,-7.3938,-7.4126,-7.4135,-7.4144,-7.4237,0,0,-7.4173,-7.4177,0,0,0,0,0,0,0,0,-7.353,-7.3551,-7.3742,-7.3749,-7.3756,-7.3892,-7.385,-7.4011,-7.3944,-7.3873,-7.394,-7.3938,-7.4052,-7.4068,-7.4107,-7.4246,-7.4254,-7.4173,-7.4179,-7.4183,-7.4186,0,0,0,0,0,0,0,-7.3519,-7.3543,-7.3776,-7.3745,-7.3754,-7.3765,-7.3786,-7.3881,-7.397,-7.3879,-7.3883,-7.3905,-7.4056,-7.4098,-7.4112,-7.4257,-7.4173,-7.4181,-7.4187,-7.4191,-7.4483,-7.4485,0,0,0,0,0,0,-7.3499,-7.3533,-7.377,-7.3782,-7.3637,-7.3773,-7.3796,-7.385,-7.397,-7.3986,-7.3907,-7.3907,-7.4083,-7.4101,-7.4119,-7.4235,-7.4183,-7.4192,-7.4197,-7.4481,-7.4484,-7.4486,0,0,0,0,0,0,-7.3492,-7.352,-7.3763,-7.3659,-7.3691,-7.378,-7.3841,-7.3855,-7.3897,-7.399,-7.4006,-7.3933,-7.4082,-7.4106,-7.4208,-7.4242,-7.4196,-7.4204,-7.4479,-7.4482,-7.4485,-7.4468,0,0,0,0,0,0,-7.3482,-7.3517,-7.3553,-7.3659,-7.3696,-7.3849,-7.3843,-7.386,-7.3913,-7.3915,-7.4019,-7.4035,-7.4083,-7.4194,-7.4217,-7.4254,-7.4212,-7.4476,-7.448,-7.4484,-7.4466,-7.4471,-7.4474,0,0,0,0,0,-7.3471,-7.354,-7.3555,-7.3583,-7.3744,-7.3851,-7.3872,-7.3926,-7.3916,-7.3953,-7.4013,-7.4031,-7.4236,-7.4204,-7.423,-7.4271,-7.4474,-7.4479,-7.4484,-7.4464,-7.447,-7.4474,0,0,0,0,0,0,-7.3434,-7.3555,-7.3572,-7.3678,-7.3754,-7.3859,-7.3907,-7.393,-7.401,-7.4008,-7.4072,-7.4095,-7.4193,-7.4243,-7.4205,-7.4368,-7.4355,-7.4365,-7.4331,-7.4337,-7.4341,-7.4325,-7.4219,0,0,0,0,0,-7.3438,-7.3516,-7.3618,-7.3701,-7.3739,-7.3816,-7.3865,-7.3901,-7.3981,-7.4013,-7.4081,-7.4158,-7.424,-7.4291,-7.4372,-7.4475,-7.4498,-7.4516,-7.452,-7.4523,-7.4531,-7.4589,-7.4598,-7.4503,-7.4502,-7.4502,0,0,-7.3447,-7.3523,-7.3568,-7.3696,-7.3758,-7.3837,-7.3843,-7.3925,-7.3984,-7.4025,-7.4126,-7.4179,-7.4269,-7.4372,-7.4421,-7.4417,-7.4563,-7.453,-7.4531,-7.4537,-7.4595,-7.4604,-7.4612,-7.4506,-7.4505,-7.4505,0,0,-7.3503,-7.3569,-7.3646,-7.371,-7.3806,-7.3858,-7.3876,-7.3979,-7.4016,-7.4118,-7.4151,-7.4222,-7.4362,-7.4424,-7.4474,-7.4558,-7.4578,-7.4583,-7.4603,-7.4659,-7.4667,-7.4674,-7.4702,-7.4711,-7.4591,-7.4591,-7.4591,0,-7.3502,-7.3622,-7.3682,-7.3764,-7.3819,-7.3863,-7.3941,-7.4,-7.4116,-7.4153,-7.4148,-7.4324,-7.4388,-7.4506,-7.4527,-7.4567,-7.4589,-7.4569,-7.4661,-7.4669,-7.4676,-7.4703,-7.4714,-7.459,-7.459,-7.459,-7.4591,0,-7.3615,-7.3698,-7.3748,-7.3861,-7.3923,-7.4002,-7.4074,-7.4129,-7.4161,-7.4213,-7.4317,-7.4396,-7.4493,-7.4525,-7.4556,-7.4648,-7.4642,-7.4649,-7.4636,-7.4684,-7.4711,-7.4722,-7.459,-7.459,-7.459,-7.459,0,0,-7.3648,-7.3797,-7.3814,-7.3866,-7.3977,-7.4042,-7.4124,-7.4221,-7.4265,-7.4346,-7.4415,-7.4534,-7.4541,-7.4598,-7.4637,-7.4687,-7.4747,-7.4687,-7.469,-7.4693,-7.4852,-7.4844,-7.4856,-7.4762,-7.4764,-7.4766,-7.4844,0,-7.3716,-7.3864,-7.3922,-7.4042,-7.412,-7.4165,-7.4236,-7.4312,-7.4364,-7.4437,-7.4494,-7.4577,-7.458,-7.4615,-7.4667,-7.4728,-7.4779,-7.4724,-7.4825,-7.4828,-7.4798,-7.487,-7.4862,-7.4931,-7.4855,-7.4857,-7.4858,0,-7.3814,-7.3897,-7.4024,-7.4127,-7.4162,-7.4225,-7.4319,-7.4389,-7.4476,-7.451,-7.4576,-7.4613,-7.47,-7.4685,-7.4806,-7.4767,-7.4813,-7.485,-7.4854,-7.4863,-7.4843,-7.4878,-7.4954,-7.4964,-7.4875,-7.4874,-7.4873,0,-7.3823,-7.3967,-7.4062,-7.4106,-7.4228,-7.4272,-7.4325,-7.441,-7.4465,-7.4548,-7.4584,-7.4675,-7.4724,-7.4794,-7.4854,-7.4838,-7.4969,-7.4959,-7.4999,-7.4997,-7.5021,-7.5018,-7.5103,-7.5056,-7.5055,-7.5055,-7.5055,0,-7.3891,-7.3967,-7.4068,-7.4126,-7.4213,-7.428,-7.4364,-7.442,-7.4496,-7.4566,-7.4611,-7.4676,-7.4753,-7.4828,-7.4876,-7.4968,-7.4991,-7.502,-7.5031,-7.5015,-7.501,-7.5043,-7.5038,-7.5058,-7.5057,-7.5057,-7.5056,0,-7.3913,-7.3984,-7.4091,-7.42,-7.4229,-7.4288,-7.4381,-7.4439,-7.4495,-7.4583,-7.4607,-7.4694,-7.4784,-7.4853,-7.497,-7.5002,-7.5099,-7.5113,-7.507,-7.5075,-7.511,-7.5104,-7.5216,-7.5233,-7.5176,-7.5177,-7.5177,0,-7.395,-7.401,-7.4126,-7.4177,-7.423,-7.4311,-7.4367,-7.4437,-7.4494,-7.4599,-7.4645,-7.4739,-7.4817,-7.4959,-7.5032,-7.5122,-7.5136,-7.5169,-7.515,-7.5131,-7.5134,-7.5129,-7.5134,-7.517,-7.517,-7.5171,-7.5171,0,-7.4008,-7.4041,-7.4121,-7.4215,-7.4282,-7.4358,-7.4436,-7.4475,-7.4558,-7.462,-7.4713,-7.4774,-7.4895,-7.4987,-7.5085,-7.5139,-7.5169,-7.5177,-7.5191,-7.5172,-7.5144,-7.5158,-7.5074,-7.5173,-7.5173,-7.5173,-7.5173,-7.5173,-7.4037,-7.4093,-7.4183,-7.4272,-7.4338,-7.441,-7.447,-7.4535,-7.4614,-7.4718,-7.4755,-7.4851,-7.4939,-7.5073,-7.5129,-7.5205,-7.5205,-7.5225,-7.523,-7.5233,-7.523,-7.5135,-7.5223,-7.5223,-7.5223,-7.5223,-7.5223,0,-7.4095,-7.4157,-7.4238,-7.4346,-7.4415,-7.444,-7.4528,-7.4584,-7.4668,-7.4748,-7.4825,-7.4933,-7.5023,-7.5105,-7.5199,-7.5244,-7.526,-7.5267,-7.5262,-7.5274,-7.5225,-7.5203,-7.5252,-7.5252,-7.5252,-7.5252,-7.5252,-7.5252,-7.4133,-7.4228,-7.4272,-7.44,-7.4462,-7.4557,-7.4605,-7.4671,-7.4735,-7.4854,-7.493,-7.4983,-7.5064,-7.5165,-7.5249,-7.5271,-7.5302,-7.5305,-7.533,-7.5282,-7.5278,-7.5274,-7.5253,-7.5312,-7.5312,-7.5372,-7.5373,-7.5373]},{"header":{"parameterUnit":"m.s-1","parameterCategory":1,"la1":30.2991,"la2":30.254,"lo1":-89.0895,"lo2":-89.0444,"dy":0.0017,"dx":0.0017,"nx":28,"ny":28,"refTime":"2024-03-24T21:00:00:Z","depth":0,"parameterNumber":3,"parameterNumberName":"V-component_of_WINDS"},"data":[0,0,0,0,0,0,0,0,0,0,0,0,0,0,0,0,0,0,0,0,0,0,0,0,0,0,0,0,0,0,0,0,0,0,0,0,0,0,0,0,0,0,0,0,0,0,0,0,0,0,0,0,0,0,0,0,0,0,5.8298,5.8298,0,5.8324,5.8324,5.8324,5.828,5.8279,5.8277,5.8276,5.83,5.8302,5.8304,0,0,0,0,0,0,0,0,0,0,0,0,0,5.8212,5.8214,5.8298,5.8298,5.8299,5.8323,5.8324,5.8324,5.8281,5.8279,5.8277,5.8275,5.8299,5.8302,5.8304,0,0,0,0,0,0,0,0,0,0,0,0,0,5.8245,5.8215,5.8298,5.828,5.8279,5.8323,5.8324,5.8324,5.8281,5.8279,5.8277,5.8275,5.8299,5.8302,5.8305,5.8367,0,0,5.8314,5.8315,0,0,0,0,0,0,0,0,5.8243,5.8248,5.8282,5.8281,5.828,5.8297,5.8302,5.8339,5.8282,5.828,5.8276,5.8273,5.8301,5.8303,5.8313,5.8369,5.837,5.8314,5.8316,5.8317,5.8318,0,0,0,0,0,0,0,5.8241,5.8247,5.8308,5.8283,5.8281,5.8271,5.8273,5.8309,5.8302,5.828,5.8277,5.8281,5.8299,5.831,5.8313,5.837,5.8314,5.8317,5.8319,5.832,5.8483,5.8485,0,0,0,0,0,0,5.8241,5.8245,5.8307,5.8309,5.8256,5.8274,5.8277,5.8293,5.8302,5.8301,5.8283,5.8279,5.8306,5.831,5.8314,5.8391,5.8317,5.832,5.8322,5.8481,5.8484,5.8486,0,0,0,0,0,0,5.8239,5.8247,5.8306,5.8276,5.8283,5.8278,5.8297,5.8295,5.8306,5.8304,5.8302,5.8295,5.8304,5.831,5.8356,5.8391,5.8321,5.8324,5.8478,5.8481,5.8485,5.8545,0,0,0,0,0,0,5.8237,5.8246,5.827,5.8277,5.8285,5.8348,5.8299,5.8297,5.8311,5.8306,5.8315,5.8314,5.8303,5.8351,5.8359,5.8394,5.8326,5.8474,5.8479,5.8484,5.854,5.855,5.8559,0,0,0,0,0,5.8234,5.8284,5.8271,5.8279,5.8314,5.835,5.8354,5.8341,5.8314,5.8338,5.8338,5.8314,5.8386,5.8356,5.8364,5.8401,5.8472,5.8478,5.8483,5.8535,5.8548,5.8559,0,0,0,0,0,0,5.8279,5.8285,5.827,5.8324,5.8337,5.8342,5.8372,5.8354,5.8374,5.8369,5.8351,5.8353,5.8404,5.8407,5.8374,5.8465,5.8425,5.8432,5.8461,5.8474,5.8483,5.8482,5.8329,0,0,0,0,0,5.8296,5.8325,5.8327,5.8375,5.8382,5.8377,5.8391,5.8381,5.8393,5.8398,5.84,5.8413,5.8439,5.8456,5.8479,5.8539,5.8542,5.8569,5.8579,5.8587,5.8594,5.863,5.8643,5.8505,5.8505,5.8505,0,0,5.833,5.8336,5.8355,5.8385,5.8393,5.8425,5.8381,5.8414,5.8438,5.8402,5.8447,5.845,5.8463,5.8518,5.8542,5.8521,5.8633,5.8594,5.8601,5.8603,5.8637,5.8651,5.8662,5.8509,5.8508,5.8508,0,0,5.8409,5.8415,5.8458,5.8468,5.8483,5.8479,5.8489,5.8498,5.8499,5.8544,5.8519,5.8547,5.859,5.8602,5.8614,5.8701,5.8681,5.8709,5.8761,5.8796,5.8807,5.8817,5.8851,5.8863,5.8716,5.8716,5.8716,0,5.8449,5.8495,5.8481,5.8519,5.8534,5.8505,5.8549,5.8559,5.858,5.8591,5.8568,5.8626,5.8632,5.8691,5.8713,5.8722,5.8735,5.8709,5.8807,5.8816,5.8825,5.8858,5.887,5.872,5.8719,5.8719,5.8718,0,5.8546,5.8579,5.8611,5.8635,5.8653,5.8693,5.8687,5.8707,5.8695,5.8694,5.8743,5.8749,5.8776,5.8788,5.8776,5.8847,5.8835,5.8809,5.8769,5.8842,5.8873,5.8885,5.8725,5.8723,5.8722,5.8721,0,0,5.8653,5.8672,5.8684,5.8696,5.8712,5.8737,5.8777,5.8804,5.8823,5.8839,5.8874,5.8913,5.8892,5.8905,5.8894,5.8925,5.8998,5.8896,5.8897,5.8918,5.9081,5.9102,5.9116,5.8985,5.8987,5.8989,5.9081,0,5.8734,5.8804,5.8795,5.8863,5.8895,5.8869,5.8904,5.8918,5.8919,5.8947,5.8947,5.8977,5.8944,5.8953,5.8982,5.8983,5.9031,5.8976,5.9018,5.902,5.9019,5.9132,5.9153,5.924,5.9092,5.9094,5.9096,0,5.8838,5.8861,5.8933,5.8948,5.896,5.8992,5.9019,5.9045,5.9061,5.9059,5.9077,5.9061,5.9102,5.9061,5.9119,5.9082,5.9098,5.9102,5.9105,5.911,5.9064,5.9143,5.9266,5.9281,5.9114,5.9112,5.9111,0,5.8913,5.8962,5.9012,5.9023,5.904,5.9064,5.9072,5.9086,5.9105,5.9127,5.914,5.9166,5.9181,5.9202,5.9195,5.9165,5.9256,5.9213,5.9258,5.9259,5.928,5.9279,5.9411,5.9286,5.9286,5.9286,5.9285,0,5.9006,5.9052,5.9047,5.9078,5.913,5.9119,5.917,5.9174,5.9188,5.9221,5.9199,5.923,5.9217,5.9248,5.9242,5.9293,5.9299,5.93,5.9299,5.9304,5.9304,5.9316,5.9311,5.9289,5.9288,5.9288,5.9287,0,5.91,5.9098,5.9152,5.9165,5.917,5.9207,5.9219,5.9249,5.9249,5.929,5.93,5.93,5.9335,5.933,5.9367,5.9364,5.9429,5.9418,5.9424,5.9423,5.947,5.9467,5.9616,5.9637,5.9496,5.9497,5.9498,0,5.9161,5.9196,5.9214,5.9236,5.9246,5.928,5.93,5.929,5.9312,5.9335,5.9363,5.9397,5.9423,5.9481,5.9484,5.9514,5.9506,5.9556,5.951,5.9516,5.9511,5.951,5.9515,5.9566,5.9568,5.9569,5.957,0,5.927,5.9269,5.9298,5.933,5.9354,5.9377,5.9398,5.9417,5.941,5.9435,5.9472,5.9493,5.9534,5.9569,5.9597,5.9606,5.9588,5.9585,5.9597,5.9604,5.9608,5.961,5.9452,5.9581,5.958,5.958,5.9579,5.9578,5.9352,5.9384,5.9403,5.9438,5.9453,5.9474,5.9505,5.951,5.9541,5.9575,5.9567,5.961,5.9628,5.9665,5.9677,5.971,5.9692,5.9709,5.9714,5.972,5.9727,5.9601,5.9715,5.9715,5.9714,5.9714,5.9714,0,5.9463,5.9475,5.9508,5.954,5.9568,5.955,5.9573,5.9598,5.9636,5.9655,5.9683,5.9727,5.9761,5.9768,5.9801,5.9827,5.982,5.9836,5.9836,5.9839,5.974,5.9727,5.9842,5.9842,5.9842,5.9842,5.9842,5.9842,5.9525,5.958,5.9581,5.9644,5.9655,5.9698,5.9713,5.9733,5.9749,5.98,5.9829,5.9834,5.9849,5.9884,5.9915,5.9916,5.9931,5.9951,5.995,5.9858,5.9845,5.9833,5.9821,5.9953,5.9954,6.0046,6.0047,6.0047]}]]